GONETS D1M 1

导读 | 星芒AI

GONETS D1M 1 是一颗俄罗斯的低轨通信卫星,属于 Gonets 系列,主要用于提供中继通信服务。该卫星由俄罗斯航天局(Roscosmos)运营,支持数据传输和远程通信功能,适用于偏远地区和移动用户。GONETS D1M 1 于 2022 年发射,运行在近地轨道,设计寿命为 5 年。该系列卫星在俄罗斯的应急通信和民用通信系统中发挥重要作用。

基本信息
目录编号:
28909
目录名称:
GONETS D1M 1
国际标识:
2005-048B
轨道中心:
EARTH
卫星名称:
GONETS D1M 1
卫星全名:
--
卫星状态:
在轨 (已飞行7299 天)
发射日期:
2005-12-21 UTC
国别 :
俄罗斯(独联体) (CIS)
星等 :
--
轨道信息
数据来源 国际轨道数据 AOE轨道数据
星历时间 2025-12-15T07:39:09+0800
18小时前
查看轨道信息
2025-12-15T12:00:00+0800
14小时前
查看轨道信息
半长轴 7820.605km 7820.576km
偏心率 0.0007724 0.0006825
轨道倾角 82.469° 82.465°
近地点辐角 205.108° 198.543°
升交点赤经 68.003° 67.889°
平近点角 328.732° 73.518°
近地点 1436.429km 1437.103km
远地点 1448.511km 1447.779km
周期 114.715分钟 114.714分钟
每日圈数 12.552848 12.552919
详细信息
使用方式:
暂无
2D轨道图
3D轨道图
轨道高度分析图
轨道倾角分析图
轨道综合分析图
查看轨道综合分析图